User: anonymous   Login
Location: Goll?ig?dem
(16.6773°N, 80.7332°E)
Time: 14:09:47
(UTC+00:00)
Language:

Cosmos 1825 Rocket - Orbit

View from above orbital plane
View from above orbital plane
View from above satellite
View from above satellite

Ground track
Ground track

The orbit data is extracted from the following two-line orbital elements,

1 17567U 87024B   21170.75403803  .00000076  00000-0  62298-5 0  9993
2 17567  82.5297 269.0359 0018813 193.0172 167.0561 14.83808741832406
Epoch (UTC): 19 June 2021 18:05:48
Eccentricity: 0.0018813
inclination: 82.5297°
perigee height: 604 km
apogee height: 630 km
right ascension of ascending node: 269.0359°
argument of perigee: 193.0172°
revolutions per day: 14.83808741
mean anomaly at epoch: 167.0561°
orbit number at epoch: 83240

The dashed part of the orbit path shows where the satellite is in the earth's shadow,  

DLR